Regional Weather Roundup
Issued by NWS

Home | Current Version | Previous Version | Text Only | Print | Product List | Glossary Off
Versions: 1 2 3 4 5 6 7 8 9 10 11 12 13 14 15 16 17 18 19 20 21 22 23 24 25 26 27 28 29 30 31 32 33 34 35 36 37 38 39 40 41 42 43 44 45 46 47 48 49 50

000
ASUS43 KMPX 210610
RWRMN
WEATHER ROUNDUP FOR MINNESOTA
NATIONAL WEATHER SERVICE TWIN CITIES/CHANHASSEN MN
1200 AM CST SAT JAN 21 2017


NOTE: "FAIR" INDICATES FEW OR NO CLOUDS BELOW 12,000 FEET WITH NO
SIGNIFICANT WEATHER AND/OR OBSTRUCTIONS TO VISIBILITY. N/A MEANS
CURRENT SKY AND/OR WEATHER CONDITIONS ARE NOT AVAILABLE.

MNZ060>063-068>070-210700-
   Twin Cities Metro

CITY           SKY/WX    TMP DP  RH WIND       PRES   REMARKS
TWIN CITIES    CLOUDY    35  33  92 SE9       29.54S FOG     WCI  28
6HR MIN TEMP:  35; 6HR MAX TEMP:  35;

ST PAUL        CLOUDY    35  35 100 SE7       29.55F FOG     WCI  29
CRYSTAL        CLOUDY    36  33  89 SE6       29.52F FOG
BLAINE         CLOUDY    37  37 100 E6        29.53F FOG
LAKEVILLE      FOG       32  32 100 E6        29.53S VSB 1/2 WCI  26
EDEN PRAIRIE   FOG       35  34  96 E6        29.51F VSB 3/4 WCI  30
6HR MIN TEMP:  35; 6HR MAX TEMP:  36;

SOUTH ST PAUL  CLOUDY    36  36 100 SE3       29.54F FOG
LAKE ELMO      FOG       34  34 100 E5        29.55F VSB 3/4 WCI  30
$$
MNZ001>005-007-008-013>017-022>024-027-028-210700-
   Northwest Minnesota

CITY           SKY/WX    TMP DP  RH WIND       PRES   REMARKS
BEMIDJI        CLOUDY    33  33 100 SE9       29.50S FOG     WCI  25
HALLOCK        CLOUDY    36  34  93 SE9       29.44S FOG
ROSEAU         CLOUDY    36  30  80 SE7       29.47F
WARROAD        CLOUDY    36  30  80 SE9       29.48F FOG
THIEF RVR FALL CLOUDY    34  33  96 SE13      29.46S WCI  25
CROOKSTON      CLOUDY    36  34  93 SE13      29.46S
FOSSTON        CLOUDY    34  32  93 SE9       29.47S WCI  26
DETROIT LAKES  CLOUDY    34  34 100 SE14      29.46S FOG     WCI  24
MOORHEAD       CLOUDY    36  34  93 SE9       29.44S
PARK RAPIDS    CLOUDY    34  32  92 SE10      29.48S FOG     WCI  26
MAHNOMEN       CLOUDY    34  33  95 SE9       29.45S WCI  27
$$
MNZ006-009>011-018-025>026-210700-
   North Central Minnesota

CITY           SKY/WX    TMP DP  RH WIND       PRES   REMARKS
BAUDETTE       CLOUDY    34  33  96 SE8       29.50F FOG     WCI  27
FLAG ISLAND    LGT RAIN  32  32 100 SE7       29.50S WCI  26
INTL FALLS     LGT SNOW  33  31  92 SE7       29.54S FOG     WCI  27
6HR MIN TEMP:  33; 6HR MAX TEMP:  36; 6HR PCP:  0.19;

WASKISH        CLOUDY    36  34  93 SE6       29.50F
BIG FORK       CLOUDY    36  34  93 SE5       29.53S
LONGVILLE      DRIZZLE   34  34 100 SE5       29.51S WCI  30
GRAND RAPIDS   FOG      N/A N/A N/A SE6       29.55S VSB 3/4
CRANE LAKE     LGT RAIN  34  32  93 CALM      29.58S
ORR            LGT SNOW  32  30  93 CALM      29.53S
COOK           LGT SNOW  32  32 100 CALM      29.56S
WALKER         CLOUDY    33  33  99 SE3       29.50F FOG
$$
MNZ012-019>021-037-210700-
   Northeast Minnesota

CITY           SKY/WX    TMP DP  RH WIND       PRES   REMARKS
DULUTH         DRZL/FOG  34  34 100 SE8       29.56F VSB 1/4 WCI  27
6HR MIN TEMP:  34; 6HR MAX TEMP:  35; 6HR PCP:  0.03;

ELY            FLURRIES  32  32 100 SE5       29.57S WCI  27
HIBBING        MIX PCPN  32  32 100 SE7       29.55R FOG     WCI  26
EVELETH        MIX PCPN  33  32  98 SE3       29.57S
DULUTH HARBOR  CLOUDY    34  34 100 CALM      29.59F FOG
TWO HARBORS    LGT RAIN  37  34  87 E5        29.57S VSB 1/2
SILVER BAY     LGT RAIN  36  36 100 E5        29.58F VSB 1
GRAND MARAIS     N/A     36  34  92 NE7       29.63S
G MARAIS ARPRT SNOW      30  28  93 E3        29.59S VSB 1/2
$$
MNZ029>031-032-039>041-046>048-054>057-064-210700-
   West Central Minnesota

CITY           SKY/WX    TMP DP  RH WIND       PRES   REMARKS
FERGUS FALLS   CLOUDY    36  36 100 SE12      29.48S
WHEATON        CLOUDY    43  43 100 SE14      29.44S FOG
MORRIS         CLOUDY    34  34 100 SE12      29.44S FOG     WCI  25
ALEXANDRIA     CLOUDY    34  33  96 SE13      29.47S FOG     WCI  25
ELBOW LAKE     CLOUDY    34  34 100 SE9G16    29.45S FOG     WCI  27
WADENA         CLOUDY    34  34 100 E9        29.48S FOG     WCI  26
GLENWOOD       FOG       34  34 100 E10       29.47F VSB 1   WCI  26
APPLETON       CLOUDY    36  34  93 SE10      29.44F FOG
BENSON         CLOUDY    37  34  87 S14       29.46F
ORTONVILLE     CLOUDY    34  32  93 SE15      29.41S FOG     WCI  24
MADISON        CLOUDY    36  36 100 SE13      29.43F FOG
WILLMAR        CLOUDY    36  36 100 SE12      29.48F FOG
$$
MNZ033>034-036-042>043-049>051-058-059-210700-
   Central Minnesota

CITY           SKY/WX    TMP DP  RH WIND       PRES   REMARKS
ST CLOUD       FOG       34  34 100 SE6       29.51F VSB 1/2 WCI  29
6HR MIN TEMP:  34; 6HR MAX TEMP:  35; 6HR PCP:  0.01;

SAUK CENTRE    CLOUDY    33  33 100 E8        29.49S FOG     WCI  26
PAYNESVILLE    DRIZZLE   34  34 100 SE8       29.49F WCI  27
AITKIN         CLOUDY    37  34  87 SE6       29.52S FOG
PINE RIVER     CLOUDY    34  34 100 SE6       29.56S FOG     WCI  29
BRAINERD       CLOUDY    34  33  96 SE5       29.52F FOG     WCI  30
STAPLES        DRIZZLE   34  34 100 CALM      29.50S
LONG PRAIRIE   CLOUDY    32  32 100 E7        29.49F FOG     WCI  26
LITTLE FALLS   CLOUDY    34  32  93 SE5       29.52S FOG     WCI  30
LITCHFIELD     FOG       36  34  93 SE8       29.50F VSB 1/2
BUFFALO        FOG       34  33  96 E5        29.52F VSB 3/4 WCI  30
MAPLE LAKE     FOG       35  35 100 MISG      29.52F VSB 1/2
HUTCHINSON     FOG       35  35 100 E8        29.51F VSB 1   WCI  28
$$
MNZ037-044-045-052-053-210700-
   East Central Minnesota

CITY           SKY/WX    TMP DP  RH WIND       PRES   REMARKS
PRINCETON      FOG       36  34  93 E3        29.53F VSB 3/4
MORA           FOG       32  32 100 E3        29.55F VSB 1/2
CAMBRIDGE      LGT RAIN  37  36  93 E3        29.52F
RUSH CITY      CLOUDY    34  34 100 CALM      29.55F FOG
MOOSE LAKE     CLOUDY    34  34 100 CALM      29.54F FOG
HINCKLEY       FOG       34  34 100 CALM      29.55F VSB 3/4
CLOQUET        SNOW      34  34 100 E3        29.55F VSB 1/2
MCGREGOR       CLOUDY    34  34 100 SE6       29.54F VSB 3/4 WCI  29
$$
MNZ071>073-080-081-089-090-097-098-210700-
   Southwest Minnesota

CITY           SKY/WX    TMP DP  RH WIND       PRES   REMARKS
MONTEVIDEO     CLOUDY    34  34 100 S10       29.47S FOG     WCI  26
GRANITE FALLS  CLOUDY    35  35  98 E10       29.47F FOG     WCI  28
CANBY          CLOUDY    35  35  99 CALM      29.43F FOG
MARSHALL       CLOUDY    35  34  96 SE8       29.44F WCI  29
REDWOOD FALLS  FOG       34  33  96 SE9       29.47S VSB 1   WCI  27
OLIVIA         CLOUDY    34  34 100 SE8       29.48S FOG     WCI  27
PIPESTONE      DRZL/FOG  36  36 100 SE9       29.40F VSB 3/4
WINDOM         FOG       36  34  93 SE7       29.45F VSB 1/4
WORTHINGTON    LGT RAIN  34  34 100 SE10      29.43F VSB 3/4 WCI  26
JACKSON        FOG       32  32 100 SE6       29.46F VSB 1/4 WCI  26
TRACY          CLOUDY    36  36  99 S6        29.44F
SLAYTON        FOG       33  33 100 SE8       29.44F VSB 1/2 WCI  26
$$
MNZ065>067-074>077-082>085-091>093-210700-
   South Central Minnesota

CITY           SKY/WX    TMP DP  RH WIND       PRES   REMARKS
MANKATO        CLOUDY    34  34 100 SE9       29.50F FOG     WCI  27
NEW ULM        CLOUDY    34  34 100 SE9       29.49S FOG     WCI  26
ST JAMES       FOG       34  34 100 E8        29.49F VSB 1   WCI  27
FAIRMONT       FOG       34  34 100 E6        29.47F VSB 1/4 WCI  29
GLENCOE        FOG       35  35 100 E6        29.50F VSB 1/2 WCI  30
FARIBAULT        N/A     36  34  93 SE5       29.52F FOG
OWATONNA       CLOUDY    36  34  93 SE9       29.51F FOG
WASECA         FOG       34  34 100 SE8       29.51F VSB 1/2 WCI  27
ALBERT LEA     FOG       36  36 100 SE6       29.49F VSB 1/4
$$
MNZ078>079-086>088-094>096-210700-
   Southeast Minnesota

CITY           SKY/WX    TMP DP  RH WIND       PRES   REMARKS
ROCHESTER      FOG       33  33 100 SE9       29.52F VSB 1/2 WCI  25
6HR MIN TEMP:  33; 6HR MAX TEMP:  33;

RED WING       CLOUDY    36  36 100 SE8       29.54F FOG
STANTON        CLOUDY    36  34  93 SE5       29.53S FOG
DODGE CENTER   FOG       34  34 100 CALM      29.51F VSB 1/2
WINONA         CLOUDY    36  34  93 SE3       29.56F FOG
AUSTIN         FOG       34  34 100 E7        29.50F VSB 1/2 WCI  28
PRESTON        FOG       33  32  97 E5        29.53F VSB 1/4 WCI  28
$$
ABBREVIATIONS USED IN REMARKS
   TC - TEMPERATURES IN CELSIUS
  WCI - WIND CHILL INDEX
   HX - HEAT INDEX
  VSB - VISIBILITY
$$




USA.gov is the U.S. government's official web portal to all federal, state and local government web resources and services.